Weather History for Boothville, LA

Change the Weather History Date:

Monday, April 29, 2013

  Actual Average Record
Temperature  
Mean Temperature 72 °F -  
Max Temperature 78 °F - - ()
Min Temperature 66 °F - - ()
Cooling Degree Days 6    
Growing Degree Days 22 (Base 50)    
Moisture  
Dew Point 67 °F    
Average Humidity 87    
Maximum Humidity 96    
Minimum Humidity 73    
Precipitation  
Precipitation 0.00 in - - ()
Sea Level Pressure  
Sea Level Pressure 29.94 in    
Wind  
Wind Speed 5 mph (East)    
Max Wind Speed 9 mph    
Max Gust Speed -    
Visibility 10 miles    
Events Rain    
T = Trace of Precipitation, MM = Missing Value Source: NWS Daily Summary

Daily Weather History Graph

Daily Weather History Graph

Search for Another Location

Airport:

Trip Planner

Search our weather history database for the weather conditions in past years. The results will help you decide how hot, cold, wet, or windy it might be!

Date:

Astronomy

Apr. 29, 2013 Rise Set
Actual Time 6:17 AM CDT 7:32 PM CDT
Civil Twilight 5:52 AM CDT 7:58 PM CDT
Nautical Twilight 5:22 AM CDT 8:27 PM CDT
Astronomical Twilight 4:51 AM CDT 8:58 PM CDT
Moon 11:51 PM CDT (4/29) 9:45 AM CDT (4/29)
Length of Visible Light 14h 05m
Length of Day
13h 15m
Waning Gibbous, 80% of the Moon is Illuminated
Apr 29
Waning Gibbous
May 2
Last Quarter
May 9
New
May 17
First Quarter
May 24
Full

Hourly Weather History & Observations

Time (CDT) Temp. Dew Point Humidity Pressure Visibility Wind Dir Wind Speed Gust Speed Precip Events Conditions
12:51 AM 66.9 °F 62.1 °F 84% 29.99 in 10.0 mi NNE 6.9 mph - N/A   Mostly Cloudy
1:51 AM 68.0 °F 64.0 °F 87% 29.96 in 10.0 mi NE 5.8 mph - N/A   Overcast
2:51 AM 66.9 °F 64.9 °F 93% 29.94 in 10.0 mi East 5.8 mph - N/A   Overcast
3:51 AM 68.0 °F 64.9 °F 90% 29.93 in 10.0 mi East 4.6 mph - N/A   Mostly Cloudy
4:51 AM 66.9 °F 64.0 °F 90% 29.94 in 10.0 mi East 3.5 mph - N/A   Clear
5:51 AM 66.9 °F 64.9 °F 93% 29.94 in 10.0 mi East 3.5 mph - N/A   Clear
6:51 AM 68.0 °F 66.0 °F 93% 29.95 in 10.0 mi East 3.5 mph - N/A   Clear
7:51 AM 70.0 °F 66.9 °F 90% 29.96 in 10.0 mi Calm Calm - N/A   Clear
8:51 AM 72.0 °F 69.1 °F 91% 29.97 in 10.0 mi East 4.6 mph - N/A   Clear
9:51 AM 75.0 °F 70.0 °F 84% 29.98 in 10.0 mi East 5.8 mph - N/A   Clear
10:51 AM 75.0 °F 69.1 °F 82% 29.98 in 10.0 mi East 5.8 mph - N/A   Clear
11:51 AM 75.9 °F 69.1 °F 79% 29.97 in 10.0 mi East 5.8 mph - N/A   Clear
12:51 PM 77.0 °F 71.1 °F 82% 29.96 in 10.0 mi NE 9.2 mph - N/A   Partly Cloudy
1:51 PM 75.0 °F 71.1 °F 87% 29.95 in 10.0 mi NE 8.1 mph - N/A   Overcast
2:25 PM 73.4 °F 66.2 °F 78% 29.95 in 10.0 mi ESE 9.2 mph - N/A   Mostly Cloudy
2:51 PM 73.9 °F 66.0 °F 76% 29.94 in 10.0 mi East 8.1 mph - N/A   Mostly Cloudy
3:14 PM 71.6 °F 62.6 °F 73% 29.94 in 10.0 mi ESE 6.9 mph - 0.00 in Rain Light Rain
3:51 PM 72.0 °F 63.0 °F 73% 29.93 in 10.0 mi East 4.6 mph - 0.00 in   Scattered Clouds
4:51 PM 75.0 °F 69.1 °F 82% 29.91 in 10.0 mi ENE 5.8 mph - N/A   Clear
5:51 PM 73.9 °F 69.1 °F 85% 29.90 in 10.0 mi East 6.9 mph - N/A   Clear
6:51 PM 73.0 °F 69.1 °F 87% 29.88 in 10.0 mi East 4.6 mph - N/A   Clear
7:51 PM 70.0 °F 68.0 °F 93% 29.89 in 10.0 mi Calm Calm - N/A   Clear
8:51 PM 70.0 °F 68.0 °F 93% 29.91 in 10.0 mi Calm Calm - N/A   Clear
9:51 PM 68.0 °F 66.9 °F 96% 29.93 in 10.0 mi East 3.5 mph - N/A   Clear
10:51 PM 69.1 °F 68.0 °F 96% 29.93 in 10.0 mi ESE 4.6 mph - N/A   Clear
11:51 PM 68.0 °F 66.9 °F 96% 29.92 in 10.0 mi East 3.5 mph - N/A   Clear